Weather in Myurego

Russia / Republic of Dagestan     42°24′30″N   47°41′23″E
temp.,
°C
wind,
m/s
gust,
m/s
humid.,
%
clouds,
%
prec.,
mm/h
press.,
hPa
HPBL,
m
2 march, tue
tue200:00+1sw118884 0.0 102822
03:00+1wnw018392 0.0 102822
06:000sw118660 0.0 102922
09:00+3ese116867 0.0 1029374
12:00+5ese336275 0.0 1027864
15:00+5ese446459 0.0 1026717
18:00+3se337627 0.0 1026107
21:00+2s127814 0.0 102632
3 march, wed
wed300:00+2s11760 0.0 102424
03:00+2s12730 0.0 102225
06:00+1nw12650 0.0 102022
09:00+4n33620 0.0 1019358
12:00+5nne336924 0.0 1017612
15:00+4nne457930 0.1 1017597
18:00+2n239377 0.3 1019206
21:00+3nw258388 0.4 1022407
4 march, thu
thu400:00+2nw4985100 0.3 1024612
03:00+1wnw397984 0.4 1025405
06:000nw138033 0.0 1027111
09:00+2ne127141 0.1 1028525
12:00+3e336787 0.1 1028736
15:00+3se566581 0.2 1026775
18:00+1se477629 0.0 1026339
21:00+1sse358115 0.0 1026151
5 march, fri
fri500:00+1sse348133 0.0 1023105
03:00+1sse117967 0.0 102131
06:00+1wnw228382 0.0 102032
09:00+4nnw457291 0.0 1020386
12:00+6n5673100 0.0 1019569
15:00+6n447671 0.0 1019496
18:00+3se11912 0.0 102135
21:00+3s23841 0.0 102230
6 march, sat
sat600:00+3s33680 0.0 102135
03:00+3s33580 0.0 102041
06:00+3s23460 0.0 102039
09:00+9se34400 0.0 1019159
12:00+11ese45440 0.0 1016337
15:00+11e33590 0.0 1014260
18:00+6se118365 0.0 101431
21:00+6nw017782 0.0 101322